CW0133 Weather Reports


Display with metric or nautical units.
time (UTC)temp
F
wind
direction
speed
MPH
gust
MPH
rain 1hr
in
rain 24hr
in
rain mn
in
humidity
%
barometer
mb
20260502203004 79 358 6.0 16.0 0.00 0.23 0.00 39 1022.8
20260502202503 78 350 10.0 17.0 0.00 0.23 0.00 40 1022.9
20260502202004 78 345 7.0 17.0 0.00 0.23 0.00 38 1022.9
20260502201504 78 7 5.0 12.0 0.00 0.23 0.00 38 1023.0
20260502201025 78 24 4.0 10.0 0.00 0.23 0.00 41 1023.1
20260502200504 78 8 5.0 11.0 0.00 0.23 0.00 37 1023.2
20260502200004 78 360 7.0 12.0 0.00 0.23 0.00 38 1023.3
20260502195503 78 350 7.0 16.0 0.00 0.23 0.00 38 1023.4
20260502195024 78 357 6.0 16.0 0.00 0.23 0.00 42 1023.4
20260502194504 78 15 5.0 14.0 0.00 0.24 0.00 39 1023.3
20260502194004 78 9 5.0 14.0 0.00 0.24 0.00 43 1023.4
20260502193503 78 8 5.0 16.0 0.00 0.24 0.00 43 1023.3
20260502193025 78 15 6.0 16.0 0.00 0.25 0.00 43 1023.3
20260502192503 77 5 7.0 17.0 0.00 0.26 0.00 44 1023.5
20260502192003 77 354 6.0 17.0 0.00 0.27 0.00 40 1023.6
20260502191504 77 335 5.0 12.0 0.00 0.28 0.00 44 1023.5
20260502191025 77 341 5.0 14.0 0.00 0.29 0.00 46 1023.5
20260502190503 76 13 6.0 14.0 0.00 0.30 0.00 46 1023.5
20260502190025 76 29 6.0 17.0 0.00 0.30 0.00 45 1023.5
20260502185503 76 40 6.0 17.0 0.00 0.30 0.00 43 1023.6
20260502185004 76 58 6.0 11.0 0.00 0.30 0.00 43 1023.7
20260502184504 76 33 6.0 16.0 0.00 0.30 0.00 45 1023.7
20260502184003 76 7 5.0 16.0 0.00 0.30 0.00 47 1023.7
20260502183504 75 21 4.0 12.0 0.00 0.30 0.00 47 1023.7
20260502183025 75 33 6.0 13.0 0.00 0.30 0.00 49 1023.8
20260502182524 75 17 6.0 13.0 0.00 0.30 0.00 49 1023.8
20260502182004 74 346 5.0 14.0 0.00 0.31 0.00 50 1024.0
20260502181503 74 350 6.0 14.0 0.00 0.33 0.00 49 1024.1
20260502181004 74 355 7.0 12.0 0.00 0.35 0.00 49 1024.4
20260502180503 74 342 7.0 14.0 0.00 0.37 0.00 53 1024.4
20260502170503 70 341 6.0 11.0 0.00 0.55 0.00 60 1025.3
20260502164003 68 6 5.0 13.0 0.00 0.55 0.00 63 1025.4
20260502163524 68 350 5.0 10.0 0.00 0.55 0.00 61 1025.3
20260502163003 68 353 5.0 10.0 0.00 0.55 0.00 62 1025.2
20260502162504 67 10 4.0 11.0 0.00 0.55 0.00 63 1025.2
20260502162003 67 360 5.0 11.0 0.00 0.55 0.00 65 1025.3
20260502161503 67 351 6.0 13.0 0.00 0.55 0.00 61 1025.4
20260502161024 66 349 6.0 13.0 0.00 0.55 0.00 63 1025.4
20260502160503 66 345 5.0 16.0 0.00 0.55 0.00 66 1025.3
20260502152003 64 341 6.0 13.0 0.00 0.60 0.00 69 1025.3
20260502151503 64 359 5.0 10.0 0.00 0.61 0.00 71 1025.4
20260502151024 64 353 6.0 12.0 0.00 0.61 0.00 70 1025.3
20260502150503 63 347 6.0 12.0 0.00 0.61 0.00 71 1025.3
20260502130504 51 337 4.0 8.0 0.00 0.75 0.00 95 1023.9
20260502123525 49 342 2.0 6.0 0.00 0.75 0.00 93 1023.7
20260502123004 49 342 2.0 5.0 0.00 0.76 0.00 93 1023.5
20260502122504 49 342 1.0 5.0 0.00 0.77 0.00 93 1023.4
20260502122004 49 342 1.0 4.0 0.00 0.80 0.00 93 1023.2
20260502121503 49 342 1.0 4.0 0.00 0.82 0.00 93 1023.2
20260502121004 49 342 1.0 4.0 0.00 0.84 0.00 93 1023.0
20260502120525 49 342 1.0 4.0 0.00 0.84 0.00 93 1022.9
20260502115504 49 342 1.0 4.0 0.00 0.86 0.00 93 1022.8
20260502115004 49 342 1.0 4.0 0.00 0.88 0.00 93 1022.8
20260502114504 49 342 1.0 4.0 0.00 0.90 0.00 93 1022.7
20260502114004 49 342 1.0 5.0 0.00 0.93 0.00 93 1022.7
20260502113504 49 342 1.0 5.0 0.00 0.95 0.00 93 1022.7
20260502113004 49 342 2.0 4.0 0.00 0.97 0.00 93 1022.7
20260502112504 49 342 1.0 5.0 0.00 0.98 0.00 93 1022.6
20260502112004 49 342 2.0 5.0 0.00 0.98 0.00 93 1022.6
20260502111504 50 342 2.0 5.0 0.00 0.99 0.00 93 1022.4
20260502111003 50 342 4.0 6.0 0.00 0.99 0.00 93 1022.3
20260502110504 50 342 4.0 6.0 0.00 1.00 0.00 93 1022.3
20260502110004 50 342 4.0 7.0 0.00 1.01 0.00 93 1022.3
20260502105503 50 342 2.0 7.0 0.00 1.03 0.00 93 1022.3
20260502105025 50 342 2.0 7.0 0.00 1.05 0.00 93 1022.3
20260502104504 50 342 2.0 5.0 0.00 1.08 0.00 93 1022.2
20260502104003 50 342 2.0 5.0 0.00 1.10 0.00 93 1021.9
20260502103503 50 342 2.0 4.0 0.00 1.12 0.00 93 1021.9
20260502103004 50 342 2.0 5.0 0.00 1.14 0.00 93 1021.9
20260502102524 50 342 2.0 5.0 0.00 1.15 0.00 93 1021.7
20260502102004 50 342 2.0 6.0 0.00 1.17 0.00 93 1021.7
20260502101504 51 342 4.0 6.0 0.00 1.18 0.00 93 1021.4
20260502101004 51 342 4.0 6.0 0.00 1.19 0.00 93 1021.4
20260502100525 51 342 4.0 6.0 0.00 1.21 0.00 93 1021.4
20260502091504 51 348 6.0 10.0 0.00 1.28 0.00 93 1020.5
20260502091003 51 345 5.0 10.0 0.00 1.29 0.00 93 1020.5
20260502090504 51 344 5.0 8.0 0.00 1.31 0.00 93 1020.5
20260502071503 52 336 5.0 10.0 0.00 1.60 0.00 93 1020.3
20260502071004 52 339 5.0 10.0 0.00 1.60 0.00 93 1020.2
20260502070525 52 343 5.0 10.0 0.00 1.60 0.00 93 1020.1
20260502070004 52 344 5.0 10.0 0.00 1.60 0.00 92 1020.0
20260502065524 52 344 4.0 10.0 0.00 1.60 0.00 92 1020.0
20260502065003 52 347 5.0 12.0 0.00 1.60 0.00 92 1020.0
20260502064525 52 346 5.0 12.0 0.00 1.60 0.00 92 1020.1
20260502064004 52 342 5.0 8.0 0.00 1.60 0.00 92 1020.1
20260502063503 52 343 5.0 8.0 0.00 1.60 0.00 92 1020.1
20260502063004 52 348 4.0 7.0 0.00 1.60 0.00 92 1020.2
20260502062504 52 341 5.0 7.0 0.00 1.61 0.00 92 1020.3
20260502062003 52 338 5.0 10.0 0.00 1.61 0.00 92 1020.4
20260502061503 52 347 4.0 10.0 0.00 1.61 0.00 91 1020.4
20260502061004 52 348 4.0 7.0 0.00 1.61 0.00 91 1020.3
20260502060503 52 348 2.0 6.0 0.00 1.61 0.00 91 1020.3
20260502060003 52 348 2.0 6.0 0.00 1.61 0.00 91 1020.4
20260502055503 52 348 2.0 5.0 0.00 1.61 0.00 91 1020.4
20260502055003 53 348 2.0 5.0 0.00 1.61 0.00 91 1020.4
20260502054503 53 348 2.0 6.0 0.00 1.61 0.00 91 1020.5
20260502054003 53 348 2.0 6.0 0.00 1.61 0.00 91 1020.4
20260502053503 53 348 4.0 7.0 0.00 1.61 0.00 91 1020.3
20260502053003 53 348 4.0 7.0 0.00 1.61 0.00 91 1020.4
20260502052524 53 348 5.0 7.0 0.00 1.61 0.00 91 1020.3
20260502052025 53 349 4.0 7.0 0.00 1.61 0.00 91 1020.1
20260502051503 53 349 4.0 7.0 0.00 1.61 0.00 91 1020.0
20260502051003 53 349 4.0 7.0 0.00 1.61 0.00 91 1020.1
20260502050503 53 349 4.0 6.0 0.00 1.61 0.00 91 1020.0
20260502050024 53 349 4.0 6.0 0.00 1.61 0.00 91 1019.9
20260502045503 54 350 4.0 8.0 0.00 1.61 1.61 91 1020.0
20260502045024 54 351 4.0 8.0 0.00 1.61 1.61 91 1020.0
20260502044504 54 353 4.0 7.0 0.00 1.61 1.61 91 1019.9
20260502044004 54 354 5.0 7.0 0.00 1.61 1.61 91 1020.1
20260502043503 54 346 5.0 11.0 0.00 1.61 1.61 91 1020.1
20260502043003 54 349 5.0 11.0 0.00 1.61 1.61 91 1020.2
20260502042503 54 352 5.0 10.0 0.00 1.61 1.61 91 1020.1
20260502042024 54 346 5.0 10.0 0.00 1.61 1.61 91 1020.2
20260502041503 54 345 5.0 10.0 0.00 1.61 1.61 91 1020.1
20260502041003 54 346 5.0 14.0 0.00 1.61 1.61 91 1020.1
20260502040503 54 350 5.0 14.0 0.00 1.61 1.61 91 1019.9
20260502040003 54 356 5.0 10.0 0.00 1.61 1.61 91 1019.8
20260502035524 54 360 5.0 11.0 0.00 1.61 1.61 91 1019.8
20260502035003 54 356 5.0 14.0 0.00 1.61 1.61 91 1019.8
20260502034503 54 353 6.0 14.0 0.00 1.61 1.61 91 1019.8
20260502034003 54 347 6.0 13.0 0.00 1.61 1.61 91 1019.9
20260502033503 54 346 7.0 16.0 0.00 1.61 1.61 91 1020.0
20260502033003 54 349 7.0 16.0 0.00 1.61 1.61 91 1020.0
20260502032503 54 351 6.0 14.0 0.00 1.61 1.61 92 1019.9
20260502032003 54 350 6.0 13.0 0.00 1.61 1.61 92 1019.8
20260502031503 54 345 6.0 13.0 0.00 1.61 1.61 92 1019.7
20260502031003 54 350 6.0 14.0 0.00 1.61 1.61 92 1019.6
20260502030503 54 349 6.0 14.0 0.00 1.61 1.61 92 1019.4
20260502030003 54 349 7.0 14.0 0.00 1.61 1.61 92 1019.4
20260502025503 54 354 7.0 16.0 0.00 1.61 1.61 92 1019.4
20260502025003 54 353 6.0 16.0 0.00 1.61 1.61 92 1019.3
20260502024503 54 351 6.0 14.0 0.00 1.61 1.61 93 1019.2
20260502024003 54 351 6.0 12.0 0.00 1.61 1.61 93 1019.2
20260502023503 54 353 6.0 11.0 0.00 1.61 1.61 93 1019.1
20260502023003 54 353 5.0 11.0 0.00 1.61 1.61 93 1019.0
20260502022525 54 345 5.0 12.0 0.00 1.61 1.61 93 1018.9
20260502022003 54 351 6.0 14.0 0.00 1.61 1.61 93 1018.8
20260502021503 54 355 6.0 14.0 0.00 1.61 1.61 93 1018.7
20260502021003 54 353 6.0 13.0 0.00 1.61 1.61 93 1018.6
20260502020503 54 356 7.0 16.0 0.00 1.61 1.61 93 1018.6
20260502020024 54 355 6.0 16.0 0.00 1.61 1.61 93 1018.5
20260502015503 54 351 6.0 14.0 0.00 1.61 1.61 94 1018.5
20260502015024 54 347 7.0 14.0 0.00 1.61 1.61 93 1018.5
20260502014503 54 349 7.0 16.0 0.00 1.61 1.61 94 1018.3
20260502014003 54 354 7.0 16.0 0.00 1.61 1.61 94 1018.1
20260502013503 54 353 7.0 14.0 0.00 1.61 1.61 94 1018.1
20260502013003 54 355 7.0 16.0 0.00 1.61 1.61 94 1018.1
20260502012503 54 355 6.0 16.0 0.00 1.61 1.61 94 1018.0
20260502012004 54 358 7.0 16.0 0.00 1.61 1.61 94 1018.0
20260502011525 54 2 7.0 19.0 0.00 1.61 1.61 94 1018.0
20260502011004 54 3 6.0 19.0 0.00 1.61 1.61 94 1017.9
20260502010504 54 2 7.0 17.0 0.00 1.61 1.61 94 1017.9
20260502010004 54 6 6.0 17.0 0.01 1.61 1.61 94 1017.8
20260502005504 54 5 8.0 20.0 0.01 1.61 1.61 94 1017.7
20260502005004 54 353 11.0 22.0 0.01 1.61 1.61 94 1017.5
20260502004504 55 350 11.0 22.0 0.01 1.61 1.61 94 1017.5
20260502004004 55 344 11.0 20.0 0.01 1.61 1.61 94 1017.5
20260502003525 56 339 10.0 20.0 0.01 1.61 1.61 94 1017.4
20260502003004 56 333 6.0 17.0 0.01 1.61 1.61 94 1017.2
20260502002504 56 348 7.0 14.0 0.01 1.61 1.61 94 1016.9
20260502002004 56 2 6.0 14.0 0.01 1.61 1.61 94 1016.4
20260502001525 56 356 6.0 13.0 0.01 1.61 1.61 94 1016.6
20260502001004 56 4 7.0 16.0 0.01 1.61 1.61 94 1016.4
20260502000504 56 5 8.0 18.0 0.01 1.61 1.61 94 1016.1
20260502000004 56 359 8.0 19.0 0.00 1.60 1.60 94 1016.3
20260501235504 56 5 6.0 19.0 0.00 1.60 1.60 94 1016.4
20260501235004 56 5 8.0 16.0 0.00 1.60 1.60 94 1016.0
20260501234504 56 1 10.0 20.0 0.00 1.60 1.60 94 1015.8
20260501234004 56 3 10.0 20.0 0.00 1.60 1.60 94 1015.7
20260501233504 56 358 11.0 23.0 0.00 1.60 1.60 94 1015.9
20260501233025 56 353 11.0 23.0 0.00 1.60 1.60 94 1016.1
20260501232525 57 354 11.0 20.0 0.01 1.60 1.60 94 1016.3
20260501232025 57 352 10.0 18.0 0.01 1.60 1.60 95 1016.1
20260501231504 57 349 8.0 20.0 0.02 1.60 1.60 95 1016.0
20260501231004 57 351 8.0 20.0 0.02 1.60 1.60 95 1016.0
20260501230525 57 350 7.0 18.0 0.03 1.60 1.60 95 1015.9
20260501230004 57 348 6.0 18.0 0.06 1.60 1.60 95 1015.7
20260501225503 57 341 6.0 12.0 0.07 1.60 1.60 95 1015.6
20260501225004 57 343 8.0 17.0 0.07 1.60 1.60 95 1015.5
20260501224504 57 346 10.0 18.0 0.08 1.60 1.60 94 1015.4
20260501224004 58 343 8.0 18.0 0.08 1.60 1.60 95 1015.5
20260501223504 58 341 7.0 19.0 0.08 1.60 1.60 95 1015.4
20260501223004 58 346 7.0 19.0 0.10 1.60 1.60 95 1015.4
20260501222504 58 351 7.0 17.0 0.11 1.59 1.59 95 1015.4
20260501222004 58 348 7.0 17.0 0.13 1.59 1.59 95 1015.5
20260501221504 58 352 10.0 18.0 0.14 1.58 1.58 95 1015.4
20260501221025 58 352 11.0 22.0 0.15 1.58 1.58 95 1015.2
20260501220525 58 347 10.0 22.0 0.15 1.57 1.57 95 1014.9
20260501220004 58 347 8.0 19.0 0.12 1.54 1.54 95 1014.8
20260501215504 58 346 8.0 19.0 0.12 1.53 1.53 95 1015.1
20260501215024 58 347 7.0 18.0 0.13 1.53 1.53 95 1015.0
20260501214504 58 345 7.0 16.0 0.12 1.52 1.52 95 1015.2
20260501214004 58 340 7.0 16.0 0.13 1.52 1.52 95 1015.5
20260501213504 58 338 8.0 18.0 0.14 1.52 1.52 95 1015.1
20260501213004 58 337 7.0 18.0 0.12 1.50 1.50 95 1014.8
20260501212525 58 341 8.0 17.0 0.10 1.48 1.48 95 1014.7
20260501212003 58 343 10.0 17.0 0.08 1.46 1.46 95 1014.5
20260501211525 58 342 10.0 20.0 0.06 1.44 1.44 95 1014.4
20260501211003 59 345 8.0 20.0 0.05 1.43 1.43 95 1014.3
20260501210524 59 346 8.0 17.0 0.04 1.42 1.42 95 1014.3
20260501210004 59 344 7.0 17.0 0.04 1.42 1.42 95 1014.4
20260501205504 59 343 8.0 18.0 0.03 1.41 1.41 95 1014.2
20260501205004 59 343 8.0 18.0 0.02 1.40 1.40 95 1013.9
20260501204504 59 344 10.0 17.0 0.03 1.40 1.40 95 1013.7
20260501204003 59 347 10.0 17.0 0.02 1.39 1.39 95 1013.3
20260501203503 59 354 8.0 17.0 0.01 1.38 1.38 95 1013.6